Location: Peterborough
(44.3091°N, 78.3197°W)
Time: 23:33:50
(UTC-05:00)

Vanguard 1 Rocket - Pass Details

Date: 14 December 2023
Orbit: 654 x 4218 km, 34.3° (Epoch: 24 February)

Event Time Altitude Azimuth Distance (km) Brightness Sun altitude
Exits shadow 23:57:09 15° 98° (E) 6,719 11.6 -68.8°
Drops below altitude 10° 00:01:10 10° 90° (E) 7,027 11.8 -68.9°
Sets 00:07:41 0° 79° (E) 7,665 12.2 -68.9°
